TimeEDT,TemperatureF,Dew PointF,Humidity,Sea Level PressureIn,VisibilityMPH,Wind Direction,Wind SpeedMPH,Gust SpeedMPH,PrecipitationIn,Events,Conditions,WindDirDegrees,DateUTC
12:53 AM,55.9,53.1,90,30.12,10.0,Calm,Calm,-,N/A,,Clear,0,2013-08-05 04:53:00
1:53 AM,55.9,53.1,90,30.13,10.0,Calm,Calm,-,N/A,,Clear,0,2013-08-05 05:53:00
2:53 AM,54.0,51.1,90,30.12,10.0,Calm,Calm,-,N/A,,Clear,0,2013-08-05 06:53:00
3:16 AM,53.6,51.8,94,30.12,1.8,Calm,Calm,-,N/A,,Clear,0,2013-08-05 07:16:00
3:23 AM,53.6,51.8,94,30.13,2.5,Calm,Calm,-,N/A,,Clear,0,2013-08-05 07:23:00
3:31 AM,53.6,51.8,94,30.13,6.0,Calm,Calm,-,N/A,,Clear,0,2013-08-05 07:31:00
3:34 AM,53.6,51.8,94,30.13,1.8,Calm,Calm,-,N/A,,Clear,0,2013-08-05 07:34:00
3:43 AM,53.6,51.8,94,30.12,4.0,Calm,Calm,-,N/A,,Clear,0,2013-08-05 07:43:00
3:53 AM,53.1,51.1,93,30.12,10.0,Calm,Calm,-,N/A,,Clear,0,2013-08-05 07:53:00
4:53 AM,54.0,51.1,90,30.12,10.0,Calm,Calm,-,N/A,,Clear,0,2013-08-05 08:53:00
5:53 AM,52.0,48.9,89,30.12,10.0,Calm,Calm,-,N/A,,Clear,0,2013-08-05 09:53:00
6:53 AM,51.1,48.9,92,30.12,10.0,Calm,Calm,-,N/A,,Clear,0,2013-08-05 10:53:00
7:53 AM,55.9,53.1,90,30.12,10.0,Calm,Calm,-,N/A,,Clear,0,2013-08-05 11:53:00
8:53 AM,62.1,57.9,86,30.12,10.0,Calm,Calm,-,N/A,,Clear,0,2013-08-05 12:53:00
9:53 AM,66.9,57.0,70,30.11,10.0,Calm,Calm,-,N/A,,Clear,0,2013-08-05 13:53:00
10:53 AM,70.0,55.9,61,30.11,10.0,Calm,Calm,-,N/A,,Clear,0,2013-08-05 14:53:00
11:53 AM,73.0,53.1,49,30.10,10.0,SW,4.6,-,N/A,,Clear,220,2013-08-05 15:53:00
12:53 PM,73.0,53.1,49,30.08,10.0,Calm,Calm,-,N/A,,Clear,0,2013-08-05 16:53:00
1:53 PM,73.9,54.0,50,30.05,10.0,Variable,6.9,-,N/A,,Clear,0,2013-08-05 17:53:00
2:53 PM,73.9,54.0,50,30.05,10.0,SSW,4.6,-,N/A,,Clear,200,2013-08-05 18:53:00
3:53 PM,75.0,55.0,50,30.04,10.0,SW,6.9,-,N/A,,Partly Cloudy,220,2013-08-05 19:53:00
4:53 PM,73.9,57.0,55,30.03,10.0,South,3.5,-,N/A,,Mostly Cloudy,190,2013-08-05 20:53:00
5:53 PM,73.0,59.0,61,30.02,10.0,South,4.6,-,N/A,,Overcast,190,2013-08-05 21:53:00
6:53 PM,72.0,60.1,66,30.01,10.0,Calm,Calm,-,N/A,,Overcast,0,2013-08-05 22:53:00
7:53 PM,72.0,60.1,66,30.00,10.0,Calm,Calm,-,N/A,,Mostly Cloudy,0,2013-08-05 23:53:00
8:53 PM,70.0,60.1,71,29.98,10.0,SE,3.5,-,N/A,,Overcast,130,2013-08-06 00:53:00
9:53 PM,70.0,57.9,65,29.98,10.0,SSE,4.6,-,N/A,,Mostly Cloudy,160,2013-08-06 01:53:00
10:53 PM,68.0,59.0,73,29.97,10.0,Calm,Calm,-,N/A,,Overcast,0,2013-08-06 02:53:00
11:53 PM,66.0,60.1,81,29.98,10.0,South,3.5,-,N/A,,Mostly Cloudy,180,2013-08-06 03:53:00